Time,TemperatureF,DewpointF,PressureIn,WindDirection,WindDirectionDegrees,WindSpeedMPH,WindSpeedGustMPH,Humidity,HourlyPrecipIn,Conditions,Clouds,dailyrainin,SoftwareType,DateUTC
2013-03-29 00:03:00,28.0,23.0,30.29,NNW,331,0.0,0.0,81,0.00,,,0.00,,2013-03-29 04:03:00,
2013-03-29 00:13:00,28.0,23.0,30.29,NNW,331,0.0,0.0,81,0.00,,,0.00,,2013-03-29 04:13:00,
2013-03-29 00:22:00,28.0,23.0,30.29,NNW,331,0.0,0.0,81,0.00,,,0.00,,2013-03-29 04:22:00,
2013-03-29 00:33:00,28.0,23.0,30.29,NNW,331,0.0,0.0,82,0.00,,,0.00,,2013-03-29 04:33:00,
2013-03-29 00:43:00,28.0,23.0,30.29,NNW,331,0.0,0.0,82,0.00,,,0.00,,2013-03-29 04:43:00,
2013-03-29 00:53:00,27.0,23.0,30.29,NNW,331,0.0,0.0,83,0.00,,,0.00,,2013-03-29 04:53:00,
2013-03-29 01:03:00,27.0,23.0,30.29,NNW,331,0.0,0.0,84,0.00,,,0.00,,2013-03-29 05:03:00,
2013-03-29 01:13:00,27.0,23.0,30.29,NNW,331,0.0,0.0,84,0.00,,,0.00,,2013-03-29 05:13:00,
2013-03-29 01:23:00,27.0,23.0,30.29,NNW,331,0.0,0.0,83,0.00,,,0.00,,2013-03-29 05:23:00,
2013-03-29 01:33:00,26.0,22.0,30.29,NNW,331,0.0,0.0,84,0.00,,,0.00,,2013-03-29 05:33:00,
2013-03-29 01:43:00,26.0,22.0,30.29,NNW,331,0.0,0.0,84,0.00,,,0.00,,2013-03-29 05:43:00,
2013-03-29 01:52:00,27.0,23.0,30.29,NNW,331,0.0,0.0,86,0.00,,,0.00,,2013-03-29 05:52:00,
2013-03-29 02:02:00,26.0,22.0,30.29,NNW,331,0.0,0.0,85,0.00,,,0.00,,2013-03-29 06:02:00,
2013-03-29 02:12:00,26.0,22.0,30.29,NNW,331,0.0,0.0,85,0.00,,,0.00,,2013-03-29 06:12:00,
2013-03-29 02:23:00,26.0,22.0,30.29,NNW,331,0.0,0.0,86,0.00,,,0.00,,2013-03-29 06:23:00,
2013-03-29 02:32:00,26.0,22.0,30.29,NNW,331,0.0,0.0,86,0.00,,,0.00,,2013-03-29 06:32:00,
2013-03-29 02:42:00,26.0,22.0,30.29,NNW,331,0.0,0.0,86,0.00,,,0.00,,2013-03-29 06:42:00,
2013-03-29 02:52:00,26.0,23.0,30.29,NNW,331,0.0,0.0,87,0.00,,,0.00,,2013-03-29 06:52:00,
2013-03-29 03:03:00,26.0,23.0,30.29,NNW,331,0.0,1.0,87,0.00,,,0.00,,2013-03-29 07:03:00,
2013-03-29 03:12:00,26.0,23.0,30.29,NNW,331,0.0,1.0,87,0.00,,,0.00,,2013-03-29 07:12:00,
2013-03-29 03:22:00,25.0,22.0,30.29,NNW,331,0.0,0.0,87,0.00,,,0.00,,2013-03-29 07:22:00,
2013-03-29 03:32:00,25.0,22.0,30.29,NNW,331,0.0,0.0,87,0.00,,,0.00,,2013-03-29 07:32:00,
2013-03-29 03:42:00,25.0,22.0,30.29,NNW,331,0.0,0.0,87,0.00,,,0.00,,2013-03-29 07:42:00,
2013-03-29 03:52:00,25.0,22.0,30.29,NNW,331,0.0,0.0,87,0.00,,,0.00,,2013-03-29 07:52:00,
2013-03-29 04:02:00,24.0,21.0,30.29,NNW,331,0.0,1.0,87,0.00,,,0.00,,2013-03-29 08:02:00,
2013-03-29 04:12:00,24.0,21.0,30.29,NNW,331,0.0,1.0,87,0.00,,,0.00,,2013-03-29 08:12:00,
2013-03-29 04:22:00,24.0,21.0,30.28,NNW,331,0.0,0.0,88,0.00,,,0.00,,2013-03-29 08:22:00,
2013-03-29 04:32:00,24.0,22.0,30.28,NNW,331,0.0,1.0,90,0.00,,,0.00,,2013-03-29 08:32:00,
2013-03-29 04:42:00,24.0,22.0,30.28,NNW,331,0.0,1.0,90,0.00,,,0.00,,2013-03-29 08:42:00,
2013-03-29 04:53:00,24.0,21.0,30.28,NNW,331,0.0,0.0,88,0.00,,,0.00,,2013-03-29 08:53:00,
2013-03-29 05:02:00,24.0,22.0,30.29,NNW,331,0.0,0.0,90,0.00,,,0.00,,2013-03-29 09:02:00,
2013-03-29 05:13:00,24.0,22.0,30.29,NNW,331,0.0,0.0,90,0.00,,,0.00,,2013-03-29 09:13:00,
2013-03-29 05:22:00,24.0,21.0,30.28,NNW,331,0.0,0.0,88,0.00,,,0.00,,2013-03-29 09:22:00,
2013-03-29 05:33:00,23.0,20.0,30.28,NNW,331,0.0,0.0,89,0.00,,,0.00,,2013-03-29 09:33:00,
2013-03-29 05:43:00,23.0,20.0,30.28,NNW,331,0.0,0.0,89,0.00,,,0.00,,2013-03-29 09:43:00,
2013-03-29 05:52:00,23.0,20.0,30.28,NNW,331,0.0,1.0,89,0.00,,,0.00,,2013-03-29 09:52:00,
2013-03-29 06:03:00,22.0,20.0,30.28,NNW,331,0.0,0.0,90,0.00,,,0.00,,2013-03-29 10:03:00,
2013-03-29 06:12:00,22.0,20.0,30.28,NNW,331,0.0,0.0,90,0.00,,,0.00,,2013-03-29 10:12:00,
2013-03-29 06:23:00,22.0,20.0,30.28,NNW,331,0.0,0.0,90,0.00,,,0.00,,2013-03-29 10:23:00,
2013-03-29 06:33:00,22.0,20.0,30.28,NNW,331,0.0,0.0,91,0.00,,,0.00,,2013-03-29 10:33:00,
2013-03-29 06:42:00,22.0,20.0,30.28,NNW,331,0.0,0.0,91,0.00,,,0.00,,2013-03-29 10:42:00,
2013-03-29 06:53:00,23.0,21.0,30.27,NNW,331,0.0,1.0,91,0.00,,,0.00,,2013-03-29 10:53:00,
2013-03-29 07:03:00,23.0,21.0,30.28,NNW,331,0.0,1.0,90,0.00,,,0.00,,2013-03-29 11:03:00,
2013-03-29 07:12:00,23.0,21.0,30.28,NNW,331,0.0,1.0,90,0.00,,,0.00,,2013-03-29 11:12:00,
2013-03-29 07:23:00,22.0,20.0,30.28,NNW,331,0.0,0.0,90,0.00,,,0.00,,2013-03-29 11:23:00,
2013-03-29 07:33:00,22.0,20.0,30.28,NNW,331,0.0,1.0,92,0.00,,,0.00,,2013-03-29 11:33:00,
2013-03-29 07:42:00,22.0,20.0,30.28,NNW,331,0.0,1.0,92,0.00,,,0.00,,2013-03-29 11:42:00,
2013-03-29 07:53:00,22.0,20.0,30.28,NNW,331,0.0,0.0,90,0.00,,,0.00,,2013-03-29 11:53:00,
2013-03-29 08:03:00,22.0,20.0,30.28,NNW,331,0.0,1.0,91,0.00,,,0.00,,2013-03-29 12:03:00,
2013-03-29 08:12:00,22.0,20.0,30.28,NNW,331,0.0,1.0,91,0.00,,,0.00,,2013-03-29 12:12:00,
2013-03-29 08:22:00,22.0,20.0,30.29,NNW,331,0.0,0.0,91,0.00,,,0.00,,2013-03-29 12:22:00,
2013-03-29 08:32:00,22.0,20.0,30.29,NNW,331,0.0,0.0,91,0.00,,,0.00,,2013-03-29 12:32:00,
2013-03-29 08:42:00,22.0,20.0,30.29,NNW,331,0.0,0.0,91,0.00,,,0.00,,2013-03-29 12:42:00,
2013-03-29 08:53:00,23.0,21.0,30.29,NNW,331,0.0,0.0,90,0.00,,,0.00,,2013-03-29 12:53:00,
2013-03-29 09:03:00,24.0,22.0,30.29,NNW,331,0.0,1.0,91,0.00,,,0.00,,2013-03-29 13:03:00,
2013-03-29 09:13:00,24.0,22.0,30.29,NNW,331,0.0,1.0,91,0.00,,,0.00,,2013-03-29 13:13:00,
2013-03-29 09:23:00,25.0,22.0,30.29,NNW,331,0.0,1.0,89,0.00,,,0.00,,2013-03-29 13:23:00,
2013-03-29 09:32:00,26.0,23.0,30.29,NNW,331,0.0,0.0,88,0.00,,,0.00,,2013-03-29 13:32:00,
2013-03-29 09:43:00,26.0,23.0,30.29,NNW,331,0.0,0.0,88,0.00,,,0.00,,2013-03-29 13:43:00,
2013-03-29 09:53:00,29.0,26.0,30.28,NNW,331,0.0,0.0,88,0.00,,,0.00,,2013-03-29 13:53:00,
2013-03-29 10:03:00,31.0,27.0,30.29,NNW,331,0.0,0.0,86,0.00,,,0.00,,2013-03-29 14:03:00,
2013-03-29 10:12:00,31.0,27.0,30.29,NNW,331,0.0,0.0,86,0.00,,,0.00,,2013-03-29 14:12:00,
2013-03-29 10:22:00,32.0,28.0,30.29,NNW,331,0.0,1.0,84,0.00,,,0.00,,2013-03-29 14:22:00,
2013-03-29 10:32:00,34.0,29.0,30.29,NNW,331,0.0,2.0,82,0.00,,,0.00,,2013-03-29 14:32:00,
2013-03-29 10:42:00,34.0,29.0,30.29,NNW,331,0.0,2.0,82,0.00,,,0.00,,2013-03-29 14:42:00,
2013-03-29 10:53:00,37.0,30.0,30.29,SW,235,0.0,1.0,77,0.00,,,0.00,,2013-03-29 14:53:00,
2013-03-29 11:02:00,38.0,30.0,30.28,SW,235,0.0,1.0,73,0.00,,,0.00,,2013-03-29 15:02:00,
2013-03-29 11:12:00,38.0,30.0,30.28,SW,235,0.0,1.0,73,0.00,,,0.00,,2013-03-29 15:12:00,
2013-03-29 11:22:00,40.0,31.0,30.28,South,190,0.0,1.0,69,0.00,,,0.00,,2013-03-29 15:22:00,
2013-03-29 11:33:00,42.0,30.0,30.28,SW,233,2.0,3.0,62,0.00,,,0.00,,2013-03-29 15:33:00,
2013-03-29 11:43:00,42.0,30.0,30.28,SW,233,2.0,3.0,62,0.00,,,0.00,,2013-03-29 15:43:00,
2013-03-29 11:53:00,43.0,29.0,30.28,West,261,0.0,4.0,57,0.00,,,0.00,,2013-03-29 15:53:00,
2013-03-29 12:03:00,44.0,27.0,30.28,WSW,258,2.0,6.0,51,0.00,,,0.00,,2013-03-29 16:03:00,
2013-03-29 12:13:00,44.0,27.0,30.28,WSW,258,2.0,6.0,51,0.00,,,0.00,,2013-03-29 16:13:00,
2013-03-29 12:23:00,45.0,28.0,30.28,WSW,249,5.0,7.0,51,0.00,,,0.00,,2013-03-29 16:23:00,
2013-03-29 12:33:00,45.0,25.0,30.28,North,349,1.0,6.0,46,0.00,,,0.00,,2013-03-29 16:33:00,
2013-03-29 12:43:00,45.0,25.0,30.28,North,349,1.0,6.0,46,0.00,,,0.00,,2013-03-29 16:43:00,
2013-03-29 12:53:00,46.0,26.0,30.27,NW,305,3.0,11.0,46,0.00,,,0.00,,2013-03-29 16:53:00,
2013-03-29 13:03:00,46.0,25.0,30.27,WSW,253,1.0,6.0,44,0.00,,,0.00,,2013-03-29 17:03:00,
2013-03-29 13:12:00,46.0,25.0,30.27,WSW,253,1.0,6.0,44,0.00,,,0.00,,2013-03-29 17:12:00,
2013-03-29 13:23:00,47.0,26.0,30.26,ENE,57,4.0,7.0,43,0.00,,,0.00,,2013-03-29 17:23:00,
2013-03-29 13:33:00,47.0,26.0,30.26,SW,230,5.0,8.0,44,0.00,,,0.00,,2013-03-29 17:33:00,
2013-03-29 13:43:00,47.0,26.0,30.26,SW,230,5.0,8.0,44,0.00,,,0.00,,2013-03-29 17:43:00,
2013-03-29 13:53:00,48.0,26.0,30.25,NE,51,4.0,6.0,42,0.00,,,0.00,,2013-03-29 17:53:00,
2013-03-29 14:02:00,48.0,26.0,30.25,ENE,69,3.0,6.0,42,0.00,,,0.00,,2013-03-29 18:02:00,
2013-03-29 14:12:00,48.0,26.0,30.25,ENE,69,3.0,6.0,42,0.00,,,0.00,,2013-03-29 18:12:00,
2013-03-29 14:23:00,49.0,26.0,30.24,WSW,257,6.0,10.0,40,0.00,,,0.00,,2013-03-29 18:23:00,
2013-03-29 14:32:00,49.0,26.0,30.24,NE,42,1.0,7.0,40,0.00,,,0.00,,2013-03-29 18:32:00,
2013-03-29 14:42:00,49.0,26.0,30.24,NE,42,1.0,7.0,40,0.00,,,0.00,,2013-03-29 18:42:00,
2013-03-29 14:53:00,48.0,24.0,30.24,ESE,113,0.0,11.0,38,0.00,,,0.00,,2013-03-29 18:53:00,
2013-03-29 15:03:00,49.0,25.0,30.23,West,269,3.0,8.0,39,0.00,,,0.00,,2013-03-29 19:03:00,
2013-03-29 15:12:00,50.0,23.0,30.23,NNW,345,2.0,9.0,35,0.00,,,0.00,,2013-03-29 19:12:00,
2013-03-29 15:23:00,50.0,23.0,30.23,NNW,345,2.0,9.0,35,0.00,,,0.00,,2013-03-29 19:23:00,
2013-03-29 15:33:00,50.0,24.0,30.22,NW,320,1.0,8.0,36,0.00,,,0.00,,2013-03-29 19:33:00,
2013-03-29 15:42:00,50.0,24.0,30.22,NW,320,1.0,8.0,36,0.00,,,0.00,,2013-03-29 19:42:00,
2013-03-29 15:53:00,50.0,23.0,30.22,NNW,333,3.0,7.0,34,0.00,,,0.00,,2013-03-29 19:53:00,
2013-03-29 16:02:00,50.0,23.0,30.22,NW,323,1.0,8.0,35,0.00,,,0.00,,2013-03-29 20:02:00,
2013-03-29 16:12:00,50.0,23.0,30.22,NW,323,1.0,8.0,35,0.00,,,0.00,,2013-03-29 20:12:00,
2013-03-29 16:22:00,50.0,24.0,30.21,ENE,74,1.0,11.0,36,0.00,,,0.00,,2013-03-29 20:22:00,
2013-03-29 16:33:00,50.0,23.0,30.21,NNW,334,6.0,9.0,34,0.00,,,0.00,,2013-03-29 20:33:00,
2013-03-29 16:42:00,50.0,23.0,30.21,NNW,334,6.0,9.0,34,0.00,,,0.00,,2013-03-29 20:42:00,
2013-03-29 16:52:00,49.0,22.0,30.21,NNE,17,6.0,11.0,34,0.00,,,0.00,,2013-03-29 20:52:00,
2013-03-29 17:02:00,49.0,22.0,30.21,NNE,27,7.0,10.0,34,0.00,,,0.00,,2013-03-29 21:02:00,
2013-03-29 17:12:00,49.0,22.0,30.21,NNE,27,7.0,10.0,34,0.00,,,0.00,,2013-03-29 21:12:00,
2013-03-29 17:22:00,49.0,23.0,30.21,NNW,337,3.0,13.0,36,0.00,,,0.00,,2013-03-29 21:22:00,
2013-03-29 17:33:00,49.0,23.0,30.21,West,271,2.0,11.0,36,0.00,,,0.00,,2013-03-29 21:33:00,
2013-03-29 17:43:00,49.0,23.0,30.21,West,271,2.0,11.0,36,0.00,,,0.00,,2013-03-29 21:43:00,
2013-03-29 17:53:00,49.0,24.0,30.21,NW,304,1.0,7.0,37,0.00,,,0.00,,2013-03-29 21:53:00,
2013-03-29 18:03:00,48.0,23.0,30.21,WNW,300,1.0,9.0,37,0.00,,,0.00,,2013-03-29 22:03:00,
2013-03-29 18:13:00,48.0,23.0,30.21,WNW,300,1.0,9.0,37,0.00,,,0.00,,2013-03-29 22:13:00,
2013-03-29 18:23:00,48.0,24.0,30.21,NW,317,4.0,8.0,38,0.00,,,0.00,,2013-03-29 22:23:00,
2013-03-29 18:33:00,48.0,22.0,30.21,North,5,2.0,8.0,36,0.00,,,0.00,,2013-03-29 22:33:00,
2013-03-29 18:42:00,48.0,22.0,30.21,North,5,2.0,8.0,36,0.00,,,0.00,,2013-03-29 22:42:00,
2013-03-29 18:54:00,47.0,22.0,30.21,NNE,32,4.0,7.0,37,0.00,,,0.00,,2013-03-29 22:54:00,
2013-03-29 19:03:00,47.0,23.0,30.21,North,10,2.0,7.0,39,0.00,,,0.00,,2013-03-29 23:03:00,
2013-03-29 19:12:00,47.0,23.0,30.21,North,10,2.0,7.0,39,0.00,,,0.00,,2013-03-29 23:12:00,
2013-03-29 19:22:00,46.0,22.0,30.22,NNW,348,3.0,7.0,38,0.00,,,0.00,,2013-03-29 23:22:00,
2013-03-29 19:32:00,45.0,22.0,30.22,WNW,298,0.0,5.0,40,0.00,,,0.00,,2013-03-29 23:32:00,
2013-03-29 19:42:00,45.0,22.0,30.22,WNW,298,0.0,5.0,40,0.00,,,0.00,,2013-03-29 23:42:00,
2013-03-29 19:53:00,45.0,21.0,30.21,WNW,288,0.0,8.0,38,0.00,,,0.00,,2013-03-29 23:53:00,
2013-03-29 20:03:00,44.0,21.0,30.21,WNW,299,0.0,2.0,40,0.00,,,0.00,,2013-03-30 00:03:00,
2013-03-29 20:12:00,44.0,21.0,30.21,WNW,299,0.0,2.0,40,0.00,,,0.00,,2013-03-30 00:12:00,
2013-03-29 20:22:00,43.0,22.0,30.21,NW,324,0.0,2.0,43,0.00,,,0.00,,2013-03-30 00:22:00,
2013-03-29 20:32:00,42.0,23.0,30.22,NW,324,0.0,1.0,47,0.00,,,0.00,,2013-03-30 00:32:00,
2013-03-29 20:43:00,42.0,23.0,30.22,NW,324,0.0,1.0,47,0.00,,,0.00,,2013-03-30 00:43:00,
2013-03-29 20:53:00,40.0,24.0,30.22,NW,324,0.0,0.0,52,0.00,,,0.00,,2013-03-30 00:53:00,
2013-03-29 21:03:00,38.0,24.0,30.22,NW,324,0.0,0.0,57,0.00,,,0.00,,2013-03-30 01:03:00,
2013-03-29 21:12:00,38.0,24.0,30.22,NW,324,0.0,0.0,57,0.00,,,0.00,,2013-03-30 01:12:00,
2013-03-29 21:22:00,37.0,25.0,30.22,NW,324,0.0,0.0,61,0.00,,,0.00,,2013-03-30 01:22:00,
2013-03-29 21:33:00,36.0,25.0,30.22,NW,324,0.0,0.0,65,0.00,,,0.00,,2013-03-30 01:33:00,
2013-03-29 21:43:00,36.0,25.0,30.22,NW,324,0.0,0.0,65,0.00,,,0.00,,2013-03-30 01:43:00,
2013-03-29 21:53:00,34.0,24.0,30.23,NW,324,0.0,0.0,66,0.00,,,0.00,,2013-03-30 01:53:00,
2013-03-29 22:03:00,34.0,25.0,30.23,NW,324,0.0,0.0,70,0.00,,,0.00,,2013-03-30 02:03:00,
2013-03-29 22:12:00,34.0,25.0,30.23,NW,324,0.0,0.0,70,0.00,,,0.00,,2013-03-30 02:12:00,
2013-03-29 22:22:00,33.0,25.0,30.23,NW,324,0.0,0.0,72,0.00,,,0.00,,2013-03-30 02:22:00,
2013-03-29 22:33:00,32.0,24.0,30.23,NW,324,0.0,0.0,73,0.00,,,0.00,,2013-03-30 02:33:00,
2013-03-29 22:43:00,32.0,24.0,30.23,NW,324,0.0,0.0,73,0.00,,,0.00,,2013-03-30 02:43:00,
2013-03-29 22:53:00,31.0,24.0,30.23,NW,324,0.0,0.0,75,0.00,,,0.00,,2013-03-30 02:53:00,
2013-03-29 23:03:00,31.0,25.0,30.23,NW,324,0.0,0.0,77,0.00,,,0.00,,2013-03-30 03:03:00,
2013-03-29 23:12:00,30.0,24.0,30.23,NW,324,0.0,0.0,78,0.00,,,0.00,,2013-03-30 03:12:00,
2013-03-29 23:22:00,30.0,24.0,30.23,NW,324,0.0,0.0,78,0.00,,,0.00,,2013-03-30 03:22:00,
2013-03-29 23:33:00,30.0,25.0,30.23,NW,324,0.0,0.0,80,0.00,,,0.00,,2013-03-30 03:33:00,
2013-03-29 23:43:00,30.0,25.0,30.23,NW,324,0.0,0.0,80,0.00,,,0.00,,2013-03-30 03:43:00,
2013-03-29 23:53:00,29.0,24.0,30.23,NW,324,0.0,0.0,81,0.00,,,0.00,,2013-03-30 03:53:00,